Home   Weather   Wilmington   Past weeks

Flag for USA Past Weather in Wilmington, Delaware, USA — Yesterday and Last 2 Weeks

58 °F

Passing clouds.

Feels Like: 56 °F
Forecast: 48 / 63 °F
Wind: 8 mph from West

Location: New Castle County Airport

Current Time: Oct 24, 2016 at 6:39:30 AM

Latest Report: Oct 24, 2016 at 5:51 AM

Visibility: 10 mi

Pressure: 29.89 "Hg

Humidity: 62%

Dew Point: 45 °F

Location of WilmingtonLocation

Past Weather in Wilmington — Graph


Wilmington Temperature Yesterday

Maximum temperature yesterday: 66 °F (at 1:51 PM)
Minimum temperature yesterday: 44 °F (at 4:51 AM)
Average temperature yesterday: 55 °F

High & Low Weather Summary for the Past Weeks

High87 °F (Oct 19, 3:51 PM)100% (Oct 17, 6:51 AM)30.48 "Hg (Oct 17, 6:51 AM)
Low40 °F (Oct 11, 4:51 AM)27% (Oct 10, 2:51 PM)29.49 "Hg (Oct 22, 1:51 AM)
Average60 °F70%30.08 "Hg
* Reported Oct 9 4:51 AM — Oct 24 4:51 AM, Wilmington, Weather by CustomWeather, © 2016

Note: Actual official high and low records may vary slightly from our data, if they occured in-between our weather recording intervals... More about our weather records


Wilmington Weather History for the Previous 24 Hours

Scroll right to see more
Time TempWeatherWind HumidityBarometerVisibility
4:51 AM
Mon, Oct 24
59 °FClear.14 mph60%29.84 "Hg10 mi
3:51 AM55 °FClear.8 mph74%29.83 "Hg10 mi
2:51 AM54 °FPassing clouds.5 mph74%29.83 "Hg10 mi
1:51 AM54 °FClear.9 mph74%29.85 "Hg10 mi
12:51 AM56 °FOvercast.10 mph70%29.88 "Hg10 mi
11:51 PM
Sun, Oct 23
56 °FClear.8 mph67%29.90 "Hg10 mi
10:51 PM56 °FClear.9 mph67%29.92 "Hg10 mi
9:51 PM56 °FClear.7 mph67%29.93 "Hg10 mi
8:51 PM57 °FClear.5 mph64%29.94 "Hg10 mi
7:51 PM59 °FClear.7 mph60%29.95 "Hg10 mi
6:51 PM60 °FClear.6 mph58%29.94 "Hg10 mi
5:51 PM62 °FSunny.6 mph52%29.93 "Hg10 mi
4:51 PM65 °FPassing clouds.12 mph45%29.92 "Hg10 mi
3:51 PM65 °FScattered clouds.12 mph44%29.92 "Hg10 mi
2:51 PM64 °FPartly sunny.15 mph43%29.93 "Hg10 mi
1:51 PM66 °FPartly sunny.17 mph39%29.93 "Hg10 mi
12:51 PM64 °FPartly sunny.15 mph43%29.95 "Hg10 mi
11:51 AM61 °FSunny.15 mph46%29.96 "Hg10 mi
10:51 AM57 °FSunny.17 mph53%29.96 "Hg10 mi
9:51 AM53 °FSunny.18 mph56%29.95 "Hg10 mi
8:51 AM49 °FSunny.12 mph64%29.95 "Hg10 mi
7:51 AM46 °FSunny.10 mph66%29.93 "Hg10 mi
6:51 AM45 °FClear.14 mph63%29.90 "Hg10 mi
Weather by CustomWeather, © 2016

See weather overviewHow to use our weather pages